Location: Newark
(48.1500°N, 13.1167°E)
Time: 22:04:47
(UTC+00:00)

XW-2D - Pass Details

Date: 14 December 2021
Orbit: 502 x 522 km, 97.5° (Epoch: 19 January)

Event Time Altitude Azimuth Distance (km) Brightness Sun altitude
Rises 17:01:07 0° 196° (SSW) 2,627 ? -16.9°
Reaches altitude 10° 17:03:30 10° 211° (SSW) 1,750 ? -17.3°
Maximum altitude 17:06:35 24° 266° (W) 1,127 ? -17.8°
Drops below altitude 10° 17:09:42 10° 321° (NW) 1,770 ? -18.3°
Sets 17:12:09 0° 336° (NNW) 2,666 ? -18.7°
